Portada
METAR-TAF:

METAR-TAF

Aeroports :

Kuantan, Malàisia

latitud: 03-37N, longitud: 103-13E, altitud: 18 m

Observació

L'informe es va fer fa 40 minuts, a les 03:00 UTC
Vent 6 kt del Nord, variant entre Oest/Nord-Oest i Est
Temperatura 29°C
Humitat 70%
Pressió 1011 hPa
Visibilitat 10 km o més
Escasses núvols a una alçada de 1700 ft, Cumulonimbus.

METAR: WMKD 210300Z 36006KT 290V080 9999 FEW017CB 29/23 Q1011 NOSIG

Hora: 11:40 (03:40 UTC)


TAF: manca

Observacions i pronòstics meteorològics de més de 4000 aeroports (METAR i TAF).

Les estacions disponibles són els punts grocs i vermells al mapa.

Posi el ratolí al punt desitjat per veure el nom de l'estació.

Feu clic per veure les observacions i els pronòstics meteorològics.

Per canviar el mapa: feu clic els botons verds amb una creu de color negre per apropar; al botó verd amb un guió per allunyar la imatge; o en les fletxes verdes per a mapes adjacents.


METAR-TAF: